www.pogodaiklimat.ru

Погода и климат >> Архив погоды >> Россия >> Чукотка >> Бухта Амбарчик


ПОГОДА в Бухте Амбарчик

  • Прогноз погоды в Бухте Амбарчик
  • Монитор погоды в Бухте Амбарчик
  • Климат города

АРХИВ ПОГОДЫ в Бухте Амбарчик

Время (UTC), дата Ветер
(напр.,м/с)
 
Видим.   Явления Облачность Т
(С)
Тd
(С)
f
(%)
Тe
(С)
Тes
(С)
Комфортность P
(гПа)
Po
(гПа)
Тmin
(С)
Tmax
(С)
R
(мм)
S
(см)
03 16.03 З 9-12
{12}
20 км позёмок {метель} 4/0
[Ac trans Ci fib]
-18.9 -21.2 82 -32 -31 опасность
обморожения
1017.7 1014.5
06 16.03 ЮЗ 10-11
{12}
20 км позёмок {метель} 3/0
[Ci fib]
-16.7 -21.1 69 -29 -29 1017.4 1014.3
09 16.03 ЮЗ 10-11
{12}
20 км позёмок {метель} 3/0
[Ci fib]
-16.0 -21.5 63 -28 -28 1017.9 1014.8 -7.6 0.0
12 16.03 ЮЗ 8
{12}
20 км позёмок {метель} 3/0
[Ci fib]
-14.8 -22.7 51 -26 -26 1017.8 1014.7
15 16.03 Ю 3
{9}
20 км {метель} 3/0
[Ci fib]
-16.3 -24.3 50 -23 -23 1018.0 1014.9
18 16.03 Ю 4
{6}
20 км {метель} 3/0
[Ci fib]
-15.3 -23.7 49 -23 -23 1017.6 1014.5
21 16.03 Ю 6
{7}
20 км 3/0
[Ci fib]
-14.7 -22.4 52 -24 -24 1017.5 1014.4 -17.4 35
00 17.03 Ю 4
{7}
20 км 4/0
[Ac trans Ci fib]
-12.5 -17.2 68 -20 -18 1016.9 1013.8
03 17.03 Ю 3
{7}
20 км 4/0
[Ac trans Ci fib]
-10.4 -13.5 78 -16 -15 1016.1 1013.0
06 17.03 ЮЗ 2
{6}
20 км 4/0
[Ac trans Ci fib]
-10.7 -14.1 76 -15 -15 1016.1 1013.0
09 17.03 ЮЗ 6
{7}
20 км 4/0
[Ac trans Ci fib]
-12.9 -15.1 84 -22 -22 1017.2 1014.1 -8.0
12 17.03 З 8
{9}
20 км позёмок {метель} 4/0
[Ac trans Ci fib]
-16.3 -18.4 84 -28 -28 1018.4 1015.3
15 17.03 З 8
{12}
20 км позёмок {метель} 4/0
[Ac trans Ci fib]
-19.3 -21.3 84 -31 -31 опасность
обморожения
1019.9 1016.7
18 17.03 З 9-10
{14}
20 км позёмок {метель} 4/0
[Ac trans Ci fib]
-18.7 -21.0 82 -31 -31 опасность
обморожения
1021.0 1017.8
21 17.03 ЮЗ 8
{10}
20 км позёмок {метель} 4/0
[Ac trans Ci fib]
-19.5 -21.5 84 -32 -32 опасность
обморожения
1022.4 1019.2 -22.7 35
00 18.03 З 6
{10}
20 км позёмок {метель} 3/0
[Ci fib]
-15.7 -18.5 79 -25 -25 1022.2 1019.1
03 18.03 ЮЗ 5
{9}
20 км {метель} 3/0
[Ci fib]
-12.6 -16.9 70 -21 -20 1021.4 1018.3
06 18.03 Ю 6
{9}
20 км позёмок {метель} 3/0
[Ci fib]
-13.2 -17.2 72 -22 -22 1019.7 1016.6
09 18.03 Ю 10-11
{11}
20 км позёмок {метель} 8/0
[Ac trans Ci fib]
-13.1 -17.6 69 -24 -24 1018.3 1015.2 -12.5
12 18.03 Ю 8-10
{11}
20 км позёмок {метель} 8/0
[Ac trans Ci fib]
-12.8 -17.7 67 -23 -23 1017.0 1013.9
15 18.03 ЮЗ 4
{10}
20 км {метель} 8/0
[Ac trans Ci fib]
-13.2 -18.0 67 -21 -21 1015.7 1012.6
18 18.03 З 11-13
{13}
4000 м метель 8/0
[Ac trans Ci fib]
-15.1 -18.1 78 -28 -28 1015.5 1012.4
21 18.03 З 7
{14}
10 км позёмок {метель} 4/0
[Ci fib]
-22.7 -25.1 81 -35 -35 опасность
обморожения
1017.8 1014.6 -22.9 35
00 19.03 З 10-11
{12}
4000 м метель 3/0
[Ac lent Ci fib]
-23.3 -25.8 80 -38 -38 опасность
обморожения
1019.4 1016.1 -23.3
03 19.03 З 8
{11}
20 км позёмок {метель} 3/0
[Ac lent Ci fib]
-20.5 -22.9 81 -33 -33 опасность
обморожения
1020.1 1016.9
06 19.03 З 7
{9}
20 км позёмок {метель} 3/0
[Ci fib]
-21.0 -23.4 81 -33 -33 опасность
обморожения
1020.6 1017.4
09 19.03 З 9-10
{11}
20 км позёмок {метель} 3/0
[Ci fib]
-20.7 -23.1 81 -34 -34 опасность
обморожения
1020.7 1017.5 -18.1
12 19.03 ЮЗ 11-12
{12}
4000 м метель 6/0
[Ac trans Ci fib]
-15.9 -19.2 76 -29 -29 1019.8 1016.7
15 19.03 ЮЗ 11-13
{14}
4000 м метель 6/0
[Ac trans Ci fib]
-15.8 -18.6 79 -29 -29 1019.4 1016.3
18 19.03 ЮЗ 13-15
{16}
2000 м метель 6/0
[Ac trans Ci fib]
-15.5 -18.1 80 -29 -29 1019.1 1016.0
21 19.03 ЮЗ 14-17
{18}
1000 м метель 3/0
[Ac trans Ci fib]
-14.2 -16.9 80 -28 -28 1018.9 1015.8 -20.9
00 20.03 ЮЗ 14-16
{19}
1000 м метель 4/0
[Ac trans Ci fib]
-13.1 -16.0 79 -26 -26 1018.9 1015.8
03 20.03 ЮЗ 14-17
{17}
1000 м метель 4/0
[Ac trans Ci fib]
-11.3 -15.0 74 -24 -24 1018.5 1015.4
06 20.03 ЮЗ 12-15
{17}
2000 м метель 3/0
[Ac trans Ci fib]
-11.0 -15.9 67 -23 -23 1018.2 1015.1
09 20.03 ЮЗ 14-16
{17}
1000 м метель 3/0
[Ac trans Ci fib]
-11.5 -17.3 62 -24 -24 1018.0 1014.9 -10.9
12 20.03 ЮЗ 14-16
{16}
1000 м метель 3/0
[Ci fib]
-11.6 -17.6 61 -24 -24 1018.1 1015.0
15 20.03 ЮЗ 13-16
{16}
1000 м метель 3/0
[Ci fib]
-11.9 -17.0 66 -24 -24 1017.8 1014.7
18 20.03 ЮЗ 14-16
{16}
1000 м метель 3/0
[Ci fib]
-11.7 -17.4 63 -24 -24 1017.3 1014.2
21 20.03 ЮЗ 14-16
{16}
1000 м метель 3/0
[Ci fib]
-11.6 -17.4 62 -24 -24 1017.8 1014.7 -12.1 35
00 21.03 ЮЗ 14-16
{17}
20 км позёмок {метель} 3/0
[Ci fib]
-10.7 -16.4 63 -23 -23 1017.8 1014.7
03 21.03 ЮЗ 13-15
{17}
20 км позёмок {метель} 8/0
[Ac lent Ci fib]
-9.5 -14.7 66 -21 -21 1017.7 1014.6
06 21.03 ЮЗ 12-15
{15}
20 км позёмок {метель} 9/4
[Sc Ac lent Ci fib]
-9.6 -15.4 63 -21 -21 1017.6 1014.5
09 21.03 ЮЗ 12-15
{15}
20 км позёмок {метель} 9/4 600 м
[Sc Ac lent Ci fib]
-10.3 -16.0 63 -22 -22 1017.8 1014.7 -9.2
12 21.03 ЮЗ 14-16
{16}
20 км позёмок {метель} 9/4 600 м
[Sc Ac lent Ci fib]
-10.0 -13.9 73 -22 -22 1017.7 1014.6
15 21.03 ЮЗ 13-16
{17}
500 м сильная метель ?/? -9.7 -10.9 91 -22 -22 1016.9 1013.8
18 21.03 ЮЗ 14-17
{17}
500 м сильная метель {ливн. осадки} ?/? -10.1 -11.3 91 -22 -22 1016.3 1013.2
21 21.03 ЮЗ 14-17
{18}
500 м сильная метель ?/? -9.6 -10.8 91 -22 -22 1016.6 1013.5 -10.4 0.7 36
00 22.03 ЮЗ 14-17
{17}
500 м сильная метель ?/? -9.0 -10.2 91 -21 -21 1016.4 1013.3
03 22.03 ЮЗ 14-16
{17}
500 м сильная метель ?/? -8.4 -9.5 92 -20 -20 1016.5 1013.4
06 22.03 З 12-15
{17}
500 м сильная метель 10/6 600 м
[Sc Ac lent Ci fib]
-8.0 -9.1 92 -19 -19 1016.7 1013.6
09 22.03 ЮЗ 13-16
{17}
500 м сильная метель 10/6 600 м
[Sc Ac lent Cs]
-7.9 -9.0 92 -19 -19 1017.3 1014.2 -7.8 1
12 22.03 З 12-15
{17}
500 м сильная метель 10/8 600 м
[Sc Ac trans Cs]
-8.0 -9.1 92 -19 -19 1017.5 1014.4
15 22.03 З 12-15
{15}
1000 м метель 10/8 600 м
[Sc Ac trans Cs]
-8.3 -9.5 91 -20 -20 1017.5 1014.4
18 22.03 ЮЗ 12-15
{15}
1000 м метель 10/8 600 м
[Sc Ac trans Cs]
-8.9 -10.1 91 -20 -20 1017.1 1014.0
21 22.03 ЮЗ 12-15
{15}
1000 м метель 10/6 600 м
[Sc Ac und]
-9.2 -10.5 90 -21 -21 1017.2 1014.1 -9.7 37

 

Местоположение метеостанции Бухта Амбарчик (Чукотка, Россия): широта 69.62 долгота 162.30 высота над уровнем моря 23 м.

В архиве по умолчанию представлена погода в Бухте Амбарчик за последнюю неделю. Архивные данные за месяц целиком и за предыдущие месяцы, начиная с января 2011 года, Вы можете получить, выбрав интересующий диапазон дат из раскрывающегося списка и нажав кнопку "Ввод!".

Внимание! Время в таблицах - всемирное. Для получения местного времени необходимо прибавить поправку, которая в Бухте Амбарчик равна 12 ч.

Смотрите также архив погоды в соседних городах и на ближайших метеорологических станциях:

Погода в Черском (Якутия, Россия) (107 км)
Погода в Анюйске (Чукотка, Россия) (145 км)
Погода в Раучуе (Чукотка, Россия) (164 км)
Погода в Константиновской (Чукотка, Россия) (170 км)
Погода в Колымской (Якутия, Россия) (177 км)
Погода на Островном (Чукотка, Россия) (182 км)
Погода на Айон Острове (Чукотка, Россия) (218 км)
Погода в Билибино (Чукотка, Россия) (240 км)
Погода в Певеке (Чукотка, Россия) (305 км)
Погода в Андрюшкино (Якутия, Россия) (309 км)

Пояснения к столбцам:

Ветер - указаны скорость ветра в м/с - средняя за 10 мин, порывы в срок и между сроками (в фигурных скобках) и направление, откуда дует ветер: С - северный, СВ - северо-восточный, В - восточный, ЮВ - юго-восточный, Ю - южный, ЮЗ - юго-западный, З - западный, СЗ - северо-западный.
Видимость - горизонтальная дальность видимости в метрах или километрах. При видимости от 1 до 10 км при отсутствии осадков обычно наблюдается дымка, при ухудшении видимости до 1 км и менее - туман. В сухую погоду видимость может ухудшаться дымом, пылью или мглою.
Явления - указаны атмосферные явления, наблюдавшиеся в срок или в последний час перед сроком; фигурными скобками обозначены явления, наблюдавшиеся между сроками (за 1-3 часа до срока); квадратными скобками обозначены град или гололедные отложения с указанием их диаметра в мм.
Облачность - указаны через наклонную черту общая и нижняя облачность в баллах и высота нижней границы облаков в метрах; квадратными скобками обозначены формы облаков: Ci - перистые, Cs - перисто-слоистые, Cc - перисто-кучевые, Ac - высококучевые, As - высокослоистые, Sc - слоисто-кучевые, Ns - слоисто-дождевые, Cu - кучевые, Cb - кучево-дождевые. Подробнее классификацию облаков см. в Атласе облаков (PDF).
T - Температура воздуха - температура, измеренная на высоте 2 м над землей.
Td - Температура точки росы - температура, при понижении до которой содержащийся в воздухе водяной пар достигнет насыщения.
f - Относительная влажность воздуха - влажноcть воздуха, измеренная на высоте 2 м над землей.
Te - Эффективная температура - температура, которую ощущает одетый по сезону человек в тени. Характеристика душности погоды. При расчете учитывается влияние влажности воздуха и скорости ветра на теплоощущения человека.
Tes - Эффективная температура на солнце - температура, которую ощущает человек, с поправкой на солнечный нагрев. Характеристика знойности погоды. Зависит от высоты солнца над горизонтом, облачности и скорости ветра. Ночью, в пасмурную погоду, а также при ветре 12 м/с и более поправка равна нулю.
P - Атмосферное давление - приведенное к уровню моря атмосферное давление.
Po - Атмосферное давление - измеренное на уровне метеостанции атмосферное давление.
Tmin - Минимальная температура - минимум температуры воздуха на высоте 2 м над землей.
Tmax - Максимальная температура - максимум температуры воздуха на высоте 2 м над землей.
R - Количество осадков - Количество выпавших осадков, мм. При наведении курсора мыши на число - период времени, за который выпало указанное количество осадков.
S - Снежный покров - Высота снежного покрова, см. При наведении курсора мыши на число - состояние снежного покрова и степень покрытия местности в баллах.